�������l�o���
Date,Time,MP-1(��Sv/h),MP-2(��Sv/h),MP-3(��Sv/h),MP-4(��Sv/h),MP-5(��Sv/h),MP-6(��Sv/h),MP-7(��Sv/h),MP-8(��Sv/h),����,����(m/s),���J
2024/03/26,00:00,0.513,0.778,0.490,0.978,0.696,0.316,0.556,0.522,�k�k��,7.8,��
2024/03/26,00:10,0.513,0.777,0.491,0.981,0.697,0.317,0.556,0.521,�k�k��,8.3,��
2024/03/26,00:20,0.513,0.779,0.490,0.978,0.696,0.315,0.556,0.522,�k�k��,8.1,��
2024/03/26,00:30,0.512,0.781,0.492,0.979,0.696,0.315,0.555,0.521,�k�k��,8.1,��
2024/03/26,00:40,0.512,0.780,0.491,0.980,0.696,0.316,0.556,0.519,�k�k��,7.7,��
2024/03/26,00:50,0.512,0.779,0.490,0.978,0.696,0.315,0.555,0.521,�k�k��,9.4,�L
2024/03/26,01:00,0.511,0.780,0.489,0.978,0.697,0.315,0.556,0.522,�k�k��,8.4,��
2024/03/26,01:10,0.512,0.779,0.491,0.980,0.697,0.316,0.555,0.521,�k�k��,9.8,��
2024/03/26,01:20,0.512,0.778,0.491,0.979,0.698,0.317,0.555,0.521,�k�k��,7.3,�L
2024/03/26,01:30,0.513,0.780,0.490,0.981,0.697,0.317,0.556,0.522,�k�k��,6.2,�L
2024/03/26,01:40,0.513,0.778,0.491,0.982,0.700,0.316,0.557,0.520,�k�k��,6.3,�L
2024/03/26,01:50,0.513,0.780,0.492,0.981,0.697,0.315,0.558,0.521,�k�k��,4.5,�L
2024/03/26,02:00,0.514,0.780,0.492,0.979,0.699,0.316,0.557,0.521,�k�k��,5.3,�L
2024/03/26,02:10,0.513,0.780,0.492,0.982,0.697,0.317,0.558,0.521,�k�k��,5.7,�L
2024/03/26,02:20,0.513,0.780,0.491,0.983,0.697,0.317,0.558,0.522,�k�k��,4.9,�L
2024/03/26,02:30,0.513,0.779,0.490,0.978,0.696,0.316,0.558,0.521,�k�k��,4.7,�L
2024/03/26,02:40,0.514,0.780,0.490,0.980,0.697,0.316,0.559,0.520,�k�k��,5.7,�L
2024/03/26,02:50,0.513,0.779,0.491,0.980,0.696,0.317,0.558,0.522,�k�k��,5.7,��
2024/03/26,03:00,0.514,0.779,0.491,0.981,0.697,0.318,0.557,0.522,�k�k��,5.9,��
2024/03/26,03:10,0.513,0.779,0.492,0.979,0.696,0.317,0.557,0.522,�k�k��,6.3,��
2024/03/26,03:20,0.514,0.778,0.490,0.977,0.697,0.314,0.558,0.521,�k�k��,6.7,��
2024/03/26,03:30,0.512,0.779,0.491,0.980,0.698,0.316,0.557,0.522,�k��,7.2,�L
2024/03/26,03:40,0.513,0.778,0.491,0.978,0.699,0.316,0.558,0.520,�k�k��,6.3,�L
2024/03/26,03:50,0.512,0.779,0.490,0.980,0.697,0.315,0.557,0.522,�k�k��,6.7,�L
2024/03/26,04:00,0.514,0.777,0.493,0.977,0.696,0.316,0.558,0.521,�k��,6.5,��
2024/03/26,04:10,0.514,0.780,0.491,0.981,0.695,0.316,0.557,0.521,�k��,5.7,��
2024/03/26,04:20,0.514,0.781,0.489,0.980,0.696,0.317,0.558,0.522,�k�k��,5.3,�L
2024/03/26,04:30,0.515,0.781,0.492,0.982,0.695,0.317,0.558,0.523,�k�k��,5.6,�L
2024/03/26,04:40,0.514,0.779,0.492,0.980,0.699,0.316,0.558,0.522,�k�k��,5.3,�L
2024/03/26,04:50,0.515,0.782,0.494,0.982,0.698,0.319,0.558,0.521,�k�k��,4.7,�L
2024/03/26,05:00,0.515,0.781,0.493,0.981,0.700,0.318,0.558,0.524,�k�k��,5.4,�L
2024/03/26,05:10,0.515,0.781,0.492,0.981,0.699,0.319,0.559,0.522,�k�k��,5.9,�L
2024/03/26,05:20,0.516,0.781,0.492,0.982,0.698,0.319,0.558,0.521,�k�k��,6.8,�L
2024/03/26,05:30,0.514,0.780,0.492,0.980,0.696,0.316,0.558,0.521,�k,7.4,�L
2024/03/26,05:40,0.514,0.779,0.491,0.980,0.696,0.319,0.558,0.523,�k�k��,7.2,�L
2024/03/26,05:50,0.515,0.779,0.491,0.980,0.695,0.317,0.557,0.521,�k�k��,7.3,�L
2024/03/26,06:00,0.513,0.780,0.493,0.983,0.697,0.316,0.558,0.522,�k�k��,7.2,�L
2024/03/26,06:10,0.513,0.779,0.492,0.981,0.698,0.316,0.557,0.521,�k�k��,7.5,�L
2024/03/26,06:20,0.512,0.781,0.492,0.979,0.699,0.317,0.558,0.522,�k�k��,6.5,�L
2024/03/26,06:30,0.514,0.779,0.491,0.981,0.698,0.317,0.559,0.521,�k�k��,7.1,�L
2024/03/26,06:40,0.514,0.778,0.491,0.980,0.697,0.318,0.558,0.522,�k�k��,6.5,�L
2024/03/26,06:50,0.515,0.777,0.492,0.979,0.695,0.318,0.557,0.521,�k�k��,5.9,�L
2024/03/26,07:00,0.514,0.776,0.490,0.980,0.695,0.319,0.556,0.520,�k�k��,6.9,�L
2024/03/26,07:10,0.513,0.774,0.491,0.978,0.693,0.319,0.556,0.521,�k�k��,7.8,�L
2024/03/26,07:20,0.511,0.773,0.489,0.975,0.690,0.319,0.555,0.521,�k�k��,6.5,�L
2024/03/26,07:30,0.507,0.762,0.486,0.972,0.686,0.317,0.555,0.521,�k�k��,5.8,�L
2024/03/26,07:40,0.503,0.758,0.484,0.966,0.680,0.315,0.552,0.518,�k��,3.8,�L
2024/03/26,07:50,0.504,0.754,0.483,0.959,0.677,0.316,0.551,0.517,�k�k��,5.9,�L
2024/03/26,08:00,0.500,0.748,0.482,0.951,0.674,0.315,0.550,0.514,�k��,2.6,�L
2024/03/26,08:10,0.497,0.742,0.480,0.942,0.667,0.315,0.548,0.512,�k�k��,0.9,�L
2024/03/26,08:20,0.500,0.743,0.483,0.937,0.667,0.314,0.546,0.511,�k�k��,4.2,�L
2024/03/26,08:30,0.498,0.744,0.483,0.934,0.664,0.314,0.547,0.512,�k��,10.2,�L
2024/03/26,08:40,0.501,0.744,0.484,0.931,0.667,0.315,0.546,0.513,-,CALM,�L
2024/03/26,08:50,0.498,0.741,0.483,0.930,0.666,0.316,0.547,0.513,�k��,10.5,�L
2024/03/26,09:00,0.498,0.741,0.484,0.928,0.664,0.315,0.547,0.513,��,10.0,�L
2024/03/26,09:10,0.500,0.741,0.484,0.927,0.663,0.317,0.547,0.514,���k��,10.9,�L
2024/03/26,09:20,0.499,0.743,0.484,0.928,0.666,0.317,0.545,0.514,�k��,10.5,�L
2024/03/26,09:30,0.499,0.741,0.481,0.926,0.661,0.316,0.544,0.513,�k��,10.5,�L
2024/03/26,09:40,0.496,0.737,0.482,0.922,0.657,0.313,0.544,0.514,-,CALM,�L
2024/03/26,09:50,0.496,0.737,0.481,0.919,0.659,0.314,0.545,0.512,���k��,10.2,�L
2024/03/26,10:00,0.496,0.738,0.480,0.921,0.650,0.312,0.545,0.510,-,CALM,�L
2024/03/26,10:10,0.495,0.735,0.480,0.920,0.640,0.313,0.541,0.512,�k��,11.0,�L
2024/03/26,10:20,0.494,0.735,0.479,0.917,0.648,0.312,0.543,0.511,�k��,11.4,�L
2024/03/26,10:30,0.493,0.736,0.479,0.916,0.653,0.312,0.541,0.512,�k��,10.9,�L
2024/03/26,10:40,0.494,0.734,0.480,0.914,0.652,0.313,0.542,0.511,-,CALM,�L
2024/03/26,10:50,0.492,0.732,0.478,0.913,0.651,0.311,0.542,0.512,�k��,10.8,�L
2024/03/26,11:00,0.492,0.729,0.478,0.914,0.651,0.312,0.542,0.510,�k�k��,12.8,�L
2024/03/26,11:10,0.493,0.731,0.478,0.914,0.650,0.312,0.542,0.512,�k�k��,10.8,�L
2024/03/26,11:20,0.491,0.731,0.478,0.910,0.647,0.312,0.541,0.509,�k�k��,11.3,�L
2024/03/26,11:30,0.490,0.728,0.478,0.908,0.647,0.313,0.540,0.509,-,CALM,�L
2024/03/26,11:40,0.489,0.728,0.477,0.909,0.644,0.311,0.541,0.510,�k��,10.0,�L
2024/03/26,11:50,0.489,0.724,0.477,0.906,0.643,0.312,0.540,0.510,�k�k��,9.7,�L
2024/03/26,12:00,0.490,0.727,0.476,0.906,0.644,0.312,0.540,0.510,-,CALM,�L
2024/03/26,12:10,0.489,0.729,0.477,0.908,0.641,0.311,0.540,0.509,�k�k��,13.1,�L
2024/03/26,12:20,0.489,0.729,0.475,0.906,0.642,0.310,0.539,0.510,�k�k��,13.5,�L
2024/03/26,12:30,0.490,0.726,0.475,0.907,0.641,0.310,0.540,0.510,�k�k��,11.9,�L
2024/03/26,12:40,0.488,0.726,0.474,0.908,0.639,0.310,0.541,0.510,�k�k��,13.0,�L
2024/03/26,12:50,0.491,0.726,0.474,0.907,0.641,0.310,0.540,0.510,�k�k��,13.8,�L
2024/03/26,13:00,0.487,0.725,0.472,0.907,0.639,0.309,0.540,0.508,�k�k��,8.4,�L
2024/03/26,13:10,0.488,0.721,0.471,0.905,0.637,0.308,0.537,0.508,�k�k��,13.0,�L
2024/03/26,13:20,0.487,0.724,0.472,0.902,0.636,0.307,0.537,0.507,�k�k��,11.3,�L
2024/03/26,13:30,0.485,0.725,0.472,0.901,0.638,0.308,0.536,0.507,�k��,10.5,�L
2024/03/26,13:40,0.487,0.725,0.473,0.905,0.638,0.309,0.537,0.509,�k�k��,12.4,�L
2024/03/26,13:50,0.487,0.725,0.472,0.905,0.637,0.308,0.538,0.509,�k�k��,12.7,�L
2024/03/26,14:00,0.486,0.724,0.472,0.903,0.637,0.309,0.536,0.509,�k�k��,12.7,�L
2024/03/26,14:10,0.486,0.723,0.472,0.904,0.633,0.309,0.537,0.509,�k�k��,13.0,�L
2024/03/26,14:20,0.486,0.723,0.472,0.900,0.634,0.309,0.535,0.509,�k�k��,13.8,�L
2024/03/26,14:30,0.487,0.721,0.473,0.902,0.633,0.310,0.536,0.508,�k�k��,12.7,�L
2024/03/26,14:40,0.485,0.724,0.473,0.902,0.632,0.309,0.535,0.509,�k�k��,13.5,�L
2024/03/26,14:50,0.487,0.722,0.471,0.900,0.630,0.309,0.536,0.509,�k�k��,11.9,�L
2024/03/26,15:00,0.485,0.722,0.472,0.899,0.630,0.309,0.537,0.508,�k��,13.5,�L
2024/03/26,15:10,0.485,0.720,0.471,0.902,0.629,0.308,0.535,0.509,�k�k��,14.2,�L
2024/03/26,15:20,0.486,0.723,0.471,0.901,0.631,0.309,0.535,0.507,�k�k��,13.8,�L
2024/03/26,15:30,0.486,0.721,0.471,0.901,0.629,0.309,0.536,0.507,�k�k��,14.1,�L
2024/03/26,15:40,0.484,0.721,0.470,0.899,0.630,0.309,0.535,0.507,�k�k��,14.2,�L
2024/03/26,15:50,0.485,0.720,0.470,0.899,0.627,0.309,0.537,0.509,�k�k��,13.0,�L
2024/03/26,16:00,0.484,0.721,0.470,0.901,0.629,0.308,0.534,0.508,�k�k��,12.8,�L
2024/03/26,16:10,0.485,0.718,0.470,0.898,0.627,0.310,0.535,0.508,�k�k��,11.1,�L
2024/03/26,16:20,0.484,0.721,0.470,0.898,0.628,0.309,0.534,0.508,�k,10.9,�L
2024/03/26,16:30,0.484,0.718,0.470,0.899,0.627,0.308,0.534,0.506,�k�k��,11.3,�L
2024/03/26,16:40,0.484,0.718,0.467,0.896,0.623,0.308,0.533,0.507,�k�k��,11.4,�L
2024/03/26,16:50,0.482,0.715,0.467,0.893,0.621,0.307,0.531,0.505,�k�k��,9.4,�L
2024/03/26,17:00,0.479,0.712,0.466,0.893,0.621,0.306,0.530,0.504,�k�k��,9.9,�L
2024/03/26,17:10,0.478,0.713,0.466,0.891,0.618,0.307,0.532,0.504,�k�k��,7.4,�L
2024/03/26,17:20,0.479,0.713,0.465,0.890,0.618,0.305,0.529,0.504,�k�k��,8.7,�L
2024/03/26,17:30,0.478,0.712,0.465,0.889,0.619,0.305,0.530,0.504,�k�k��,10.2,�L
2024/03/26,17:40,0.478,0.711,0.465,0.888,0.616,0.304,0.531,0.503,�k�k��,11.0,�L
2024/03/26,17:50,0.477,0.711,0.464,0.888,0.616,0.305,0.530,0.503,�k�k��,11.1,�L
2024/03/26,18:00,0.478,0.711,0.462,0.888,0.613,0.304,0.529,0.504,�k�k��,9.9,�L
2024/03/26,18:10,0.477,0.710,0.463,0.887,0.610,0.305,0.528,0.503,�k�k��,10.8,�L
2024/03/26,18:20,0.475,0.708,0.463,0.886,0.611,0.303,0.528,0.504,�k�k��,11.6,�L
2024/03/26,18:30,0.476,0.709,0.464,0.887,0.610,0.304,0.529,0.503,�k�k��,11.1,�L
2024/03/26,18:40,0.476,0.709,0.463,0.886,0.611,0.304,0.528,0.504,�k�k��,11.9,�L
2024/03/26,18:50,0.478,0.710,0.462,0.886,0.611,0.305,0.531,0.504,�k��,13.0,�L
2024/03/26,19:00,0.476,0.712,0.462,0.887,0.612,0.302,0.530,0.505,�k�k��,10.6,�L
2024/03/26,19:10,0.474,0.710,0.461,0.890,0.608,0.303,0.529,0.505,�k�k��,12.4,�L
2024/03/26,19:20,0.476,0.712,0.462,0.888,0.611,0.301,0.529,0.506,�k�k��,12.5,�L
2024/03/26,19:30,0.476,0.711,0.462,0.891,0.609,0.303,0.529,0.504,�k�k��,12.4,�L
2024/03/26,19:40,0.476,0.712,0.461,0.892,0.610,0.301,0.530,0.505,�k�k��,11.6,�L
2024/03/26,19:50,0.476,0.713,0.462,0.894,0.610,0.302,0.529,0.506,�k�k��,11.6,�L
2024/03/26,20:00,0.476,0.712,0.462,0.894,0.610,0.303,0.530,0.506,�k�k��,11.4,�L
2024/03/26,20:10,0.478,0.715,0.464,0.895,0.611,0.304,0.530,0.505,�k�k��,12.7,�L
2024/03/26,20:20,0.478,0.716,0.464,0.896,0.612,0.304,0.532,0.506,�k�k��,10.2,�L
2024/03/26,20:30,0.480,0.716,0.464,0.899,0.613,0.304,0.532,0.505,�k�k��,12.1,�L
2024/03/26,20:40,0.481,0.718,0.464,0.899,0.613,0.305,0.532,0.507,�k�k��,11.8,�L
2024/03/26,20:50,0.481,0.718,0.466,0.899,0.613,0.303,0.533,0.507,�k�k��,9.9,�L
2024/03/26,21:00,0.479,0.721,0.466,0.901,0.615,0.305,0.532,0.506,�k�k��,12.0,�L
2024/03/26,21:10,0.483,0.722,0.464,0.902,0.617,0.304,0.532,0.506,�k�k��,10.6,�L
2024/03/26,21:20,0.480,0.721,0.465,0.903,0.617,0.304,0.532,0.506,�k�k��,11.1,�L
2024/03/26,21:30,0.482,0.721,0.466,0.901,0.616,0.305,0.533,0.506,�k��,11.9,�L
2024/03/26,21:40,0.481,0.722,0.464,0.902,0.616,0.306,0.531,0.506,�k�k��,10.9,�L
2024/03/26,21:50,0.481,0.720,0.465,0.902,0.616,0.304,0.533,0.505,�k�k��,10.5,�L
2024/03/26,22:00,0.480,0.722,0.465,0.903,0.615,0.305,0.534,0.506,�k�k��,11.7,�L
2024/03/26,22:10,0.479,0.721,0.465,0.903,0.617,0.305,0.533,0.506,�k�k��,12.4,�L
2024/03/26,22:20,0.480,0.721,0.463,0.901,0.617,0.305,0.532,0.505,�k��,12.4,�L
2024/03/26,22:30,0.479,0.723,0.464,0.902,0.618,0.304,0.533,0.506,�k�k��,13.0,�L
2024/03/26,22:40,0.479,0.721,0.463,0.902,0.619,0.303,0.533,0.504,�k�k��,12.4,�L
2024/03/26,22:50,0.480,0.722,0.464,0.904,0.620,0.304,0.534,0.505,�k�k��,10.9,�L
2024/03/26,23:00,0.480,0.723,0.463,0.904,0.618,0.303,0.533,0.507,�k�k��,12.5,�L
2024/03/26,23:10,0.480,0.720,0.464,0.903,0.619,0.304,0.533,0.505,�k�k��,10.7,�L
2024/03/26,23:20,0.479,0.723,0.465,0.903,0.621,0.302,0.534,0.505,�k�k��,10.6,�L
2024/03/26,23:30,0.479,0.723,0.463,0.906,0.623,0.303,0.534,0.504,�k�k��,10.5,�L
2024/03/26,23:40,0.478,0.722,0.462,0.904,0.623,0.302,0.534,0.505,�k��,11.3,�L
2024/03/26,23:50,0.480,0.722,0.463,0.903,0.621,0.303,0.534,0.505,�k�k��,10.9,�L
